Location: Ripley
(48.3812°N, 115.4473°W)
Time: 11:00:02
(UTC+00:00)

AIST 2D - Pass Details

Date: 03 July 2022
Orbit: 433 x 444 km, 97.0° (Epoch: 09 August)

Event Time Altitude Azimuth Distance (km) Brightness Sun altitude
Rises 05:18:07 0° 13° (NNE) 2,428 ? -11.4°
Reaches altitude 10° 05:20:09 10° 15° (NNE) 1,556 ? -11.5°
Maximum altitude 05:23:29 76° 102° (ESE) 456 ? -11.9°
Enters shadow 05:26:20 13° 188° (S) 1,352 ? -12.1°
